[[{"header":{"parameterUnit":"m.s-1","parameterCategory":1,"la1":30.2991,"la2":30.254,"lo1":-89.0895,"lo2":-89.0444,"dy":0.0017,"dx":0.0017,"nx":28,"ny":28,"refTime":"2024-03-31T03:00:00:Z","depth":0,"parameterNumber":2,"parameterNumberName":"U-component_of_WINDS"},"data":[0,0,0,0,0,0,0,0,0,0,0,0,0,0,0,0,0,0,0,0,0,0,0,0,0,0,0,0,0,0,0,0,0,0,0,0,0,0,0,0,0,0,0,0,0,0,0,0,0,0,0,0,0,0,0,0,0,0,-1.9577,-1.9577,0,-1.9548,-1.9548,-1.9547,-1.9495,-1.9494,-1.9493,-1.9492,-1.9463,-1.9463,-1.9463,0,0,0,0,0,0,0,0,0,0,0,0,0,-1.9589,-1.9589,-1.9577,-1.9577,-1.9576,-1.9548,-1.9547,-1.9547,-1.9495,-1.9494,-1.9493,-1.9491,-1.9463,-1.9463,-1.9463,0,0,0,0,0,0,0,0,0,0,0,0,0,-1.9574,-1.9589,-1.9577,-1.9547,-1.9544,-1.9548,-1.9547,-1.9547,-1.9495,-1.9494,-1.9492,-1.9491,-1.9463,-1.9463,-1.9463,-1.9495,0,0,-1.9464,-1.9464,0,0,0,0,0,0,0,0,-1.9575,-1.9574,-1.9552,-1.9549,-1.9546,-1.9523,-1.9541,-1.9529,-1.9496,-1.9514,-1.9492,-1.949,-1.9484,-1.9483,-1.948,-1.9493,-1.9492,-1.9464,-1.9464,-1.9464,-1.9464,0,0,0,0,0,0,0,-1.9576,-1.9575,-1.9565,-1.9551,-1.9548,-1.9535,-1.9531,-1.9539,-1.9508,-1.9512,-1.9508,-1.9505,-1.9482,-1.948,-1.9479,-1.9492,-1.9464,-1.9464,-1.9464,-1.9464,-1.9529,-1.9531,0,0,0,0,0,0,-1.9581,-1.9576,-1.9566,-1.9565,-1.9557,-1.9536,-1.9532,-1.9532,-1.9508,-1.9502,-1.9507,-1.9503,-1.9481,-1.9479,-1.9478,-1.9513,-1.9464,-1.9464,-1.9465,-1.9528,-1.9529,-1.9531,0,0,0,0,0,0,-1.9582,-1.9581,-1.9568,-1.9569,-1.9566,-1.9538,-1.9538,-1.9532,-1.953,-1.9504,-1.9498,-1.951,-1.9479,-1.9478,-1.9491,-1.9512,-1.9465,-1.9465,-1.9526,-1.9528,-1.953,-1.9584,0,0,0,0,0,0,-1.9582,-1.9581,-1.9593,-1.957,-1.9567,-1.9581,-1.9539,-1.9533,-1.9531,-1.9526,-1.9505,-1.9501,-1.9478,-1.9491,-1.9491,-1.9511,-1.9465,-1.9524,-1.9527,-1.953,-1.958,-1.9588,-1.9594,0,0,0,0,0,-1.9583,-1.9609,-1.9594,-1.9593,-1.958,-1.9582,-1.958,-1.9553,-1.9533,-1.9544,-1.9527,-1.9501,-1.951,-1.9493,-1.9493,-1.9513,-1.9522,-1.9526,-1.9529,-1.9577,-1.9586,-1.9594,0,0,0,0,0,0,-1.9635,-1.9606,-1.9588,-1.9607,-1.9598,-1.9573,-1.9586,-1.9564,-1.956,-1.9556,-1.9523,-1.9519,-1.9537,-1.9526,-1.9508,-1.9542,-1.9512,-1.9516,-1.9548,-1.9557,-1.9564,-1.9566,-1.9465,0,0,0,0,0,-1.9649,-1.9653,-1.9627,-1.9647,-1.9642,-1.9616,-1.9615,-1.9596,-1.9584,-1.958,-1.9564,-1.9554,-1.9554,-1.9555,-1.9554,-1.9579,-1.9574,-1.9593,-1.96,-1.9606,-1.9609,-1.9622,-1.963,-1.9543,-1.9543,-1.9543,0,0,-1.9678,-1.9662,-1.9666,-1.9657,-1.9647,-1.9651,-1.9612,-1.9619,-1.9622,-1.9581,-1.9592,-1.958,-1.9567,-1.9586,-1.9594,-1.9578,-1.9632,-1.961,-1.9615,-1.9615,-1.9626,-1.9634,-1.9642,-1.9545,-1.9545,-1.9544,0,0,-1.9732,-1.9721,-1.9736,-1.9727,-1.9712,-1.9694,-1.9698,-1.9677,-1.9667,-1.9678,-1.9647,-1.9651,-1.9652,-1.9644,-1.964,-1.9693,-1.9669,-1.9694,-1.973,-1.9743,-1.975,-1.9756,-1.9774,-1.9781,-1.9697,-1.9697,-1.9697,0,-1.977,-1.9775,-1.9747,-1.9755,-1.9752,-1.9715,-1.973,-1.9723,-1.9709,-1.9708,-1.969,-1.9691,-1.968,-1.9697,-1.971,-1.9708,-1.9711,-1.9695,-1.9751,-1.9757,-1.9762,-1.9779,-1.9786,-1.97,-1.97,-1.97,-1.9699,0,-1.9822,-1.9826,-1.984,-1.9828,-1.9826,-1.9838,-1.9812,-1.9814,-1.9795,-1.9779,-1.9791,-1.9776,-1.9771,-1.9774,-1.9755,-1.9788,-1.9779,-1.9757,-1.9726,-1.9773,-1.9789,-1.9795,-1.9705,-1.9703,-1.9703,-1.9702,0,0,-1.9908,-1.9879,-1.9885,-1.9879,-1.986,-1.9863,-1.9874,-1.9869,-1.9872,-1.9864,-1.9872,-1.9874,-1.9854,-1.9849,-1.983,-1.9841,-1.9883,-1.9817,-1.9817,-1.983,-1.9918,-1.9935,-1.9943,-1.9868,-1.9869,-1.987,-1.9919,0,-1.9958,-1.9974,-1.9949,-1.997,-1.9974,-1.994,-1.9949,-1.9939,-1.9925,-1.9926,-1.9911,-1.9913,-1.9886,-1.9883,-1.9892,-1.9876,-1.9901,-1.9872,-1.9875,-1.9875,-1.9879,-1.9951,-1.9968,-2.0015,-1.9925,-1.9926,-1.9927,0,-2.0018,-2.0013,-2.0035,-2.0015,-2.0016,-2.0025,-2.0018,-2.002,-2.0009,-1.9997,-1.9993,-1.997,-1.998,-1.995,-1.9963,-1.9944,-1.9944,-1.9936,-1.9938,-1.9936,-1.9904,-1.9951,-2.003,-2.0037,-1.9937,-1.9936,-1.9935,0,-2.0078,-2.0076,-2.0089,-2.0085,-2.0063,-2.007,-2.0061,-2.0048,-2.0047,-2.0041,-2.004,-2.0037,-2.0035,-2.0032,-2.0009,-1.999,-2.0025,-1.9993,-2.0016,-2.0016,-2.0024,-2.0024,-2.0103,-2.0025,-2.0025,-2.0025,-2.0025,0,-2.0136,-2.0151,-2.0116,-2.0124,-2.014,-2.0111,-2.0128,-2.0116,-2.0104,-2.011,-2.008,-2.0086,-2.0055,-2.0057,-2.0039,-2.0053,-2.0052,-2.0043,-2.0038,-2.0046,-2.0047,-2.0045,-2.004,-2.0027,-2.0026,-2.0026,-2.0026,0,-2.0205,-2.0183,-2.0194,-2.0172,-2.0167,-2.018,-2.0161,-2.0168,-2.0152,-2.0159,-2.0159,-2.0134,-2.0136,-2.0113,-2.011,-2.0098,-2.0119,-2.0108,-2.0123,-2.0119,-2.0143,-2.0141,-2.0223,-2.0233,-2.0149,-2.015,-2.0151,0,-2.0244,-2.0254,-2.0233,-2.0235,-2.0227,-2.023,-2.0228,-2.0201,-2.0201,-2.0189,-2.0197,-2.0196,-2.0194,-2.0198,-2.018,-2.0177,-2.0166,-2.0195,-2.0166,-2.0173,-2.0166,-2.0166,-2.0166,-2.0201,-2.0202,-2.0203,-2.0204,0,-2.0314,-2.0302,-2.0301,-2.0297,-2.0296,-2.0291,-2.0284,-2.0287,-2.0257,-2.0259,-2.026,-2.0258,-2.0255,-2.0254,-2.0249,-2.024,-2.0217,-2.0214,-2.0219,-2.0226,-2.0234,-2.0229,-2.0139,-2.0212,-2.0211,-2.021,-2.021,-2.021,-2.0369,-2.0376,-2.0363,-2.0363,-2.0355,-2.0349,-2.0355,-2.0339,-2.034,-2.0335,-2.0319,-2.0323,-2.0311,-2.0301,-2.0295,-2.0297,-2.0283,-2.029,-2.0292,-2.0294,-2.0299,-2.0234,-2.0296,-2.0296,-2.0296,-2.0296,-2.0296,0,-2.0437,-2.0427,-2.0427,-2.0418,-2.0418,-2.0397,-2.0389,-2.039,-2.0394,-2.0385,-2.0383,-2.0385,-2.0384,-2.0366,-2.0364,-2.037,-2.0359,-2.037,-2.0369,-2.0367,-2.0312,-2.0307,-2.0378,-2.0378,-2.0378,-2.0378,-2.0378,-2.0378,-2.0473,-2.0485,-2.0472,-2.048,-2.0469,-2.0472,-2.0469,-2.0464,-2.0457,-2.046,-2.0459,-2.0447,-2.0435,-2.0431,-2.043,-2.0425,-2.0425,-2.0439,-2.0431,-2.0379,-2.0371,-2.0363,-2.0359,-2.044,-2.044,-2.0486,-2.0486,-2.0487]},{"header":{"parameterUnit":"m.s-1","parameterCategory":1,"la1":30.2991,"la2":30.254,"lo1":-89.0895,"lo2":-89.0444,"dy":0.0017,"dx":0.0017,"nx":28,"ny":28,"refTime":"2024-03-31T03:00:00:Z","depth":0,"parameterNumber":3,"parameterNumberName":"V-component_of_WINDS"},"data":[0,0,0,0,0,0,0,0,0,0,0,0,0,0,0,0,0,0,0,0,0,0,0,0,0,0,0,0,0,0,0,0,0,0,0,0,0,0,0,0,0,0,0,0,0,0,0,0,0,0,0,0,0,0,0,0,0,0,4.7172,4.7172,0,4.714,4.714,4.7139,4.7083,4.7082,4.7081,4.708,4.7044,4.7044,4.7044,0,0,0,0,0,0,0,0,0,0,0,0,0,4.7183,4.7183,4.7172,4.7172,4.7171,4.714,4.714,4.7139,4.7083,4.7082,4.708,4.7079,4.7044,4.7044,4.7044,0,0,0,0,0,0,0,0,0,0,0,0,0,4.7167,4.7183,4.7172,4.7139,4.7136,4.714,4.714,4.7139,4.7083,4.7082,4.708,4.7079,4.7043,4.7044,4.7044,4.7076,0,0,4.7044,4.7044,0,0,0,0,0,0,0,0,4.7168,4.7167,4.7145,4.7142,4.7138,4.7114,4.713,4.7118,4.7084,4.7103,4.708,4.7078,4.7068,4.7066,4.7063,4.7074,4.7072,4.7044,4.7044,4.7044,4.7044,0,0,0,0,0,0,0,4.7169,4.7168,4.7159,4.7144,4.714,4.7126,4.7122,4.7128,4.7095,4.7101,4.7097,4.7094,4.7066,4.7063,4.7062,4.7072,4.7044,4.7044,4.7044,4.7044,4.711,4.7112,0,0,0,0,0,0,4.7176,4.7169,4.716,4.7158,4.715,4.7127,4.7123,4.7123,4.7095,4.7089,4.7096,4.7092,4.7064,4.7062,4.7061,4.7098,4.7044,4.7044,4.7044,4.7108,4.711,4.7112,0,0,0,0,0,0,4.7176,4.7175,4.7161,4.7163,4.716,4.7129,4.713,4.7123,4.7121,4.709,4.7084,4.7099,4.7063,4.706,4.7073,4.7095,4.7044,4.7044,4.7106,4.7109,4.7111,4.7171,0,0,0,0,0,0,4.7177,4.7176,4.7188,4.7163,4.716,4.7175,4.7131,4.7124,4.7121,4.7116,4.7092,4.7087,4.7061,4.7073,4.7073,4.7095,4.7044,4.7104,4.7107,4.711,4.7167,4.7176,4.7183,0,0,0,0,0,4.7177,4.7204,4.7189,4.7188,4.7174,4.7176,4.7174,4.7146,4.7123,4.7135,4.7116,4.7087,4.7094,4.7075,4.7074,4.7096,4.7102,4.7106,4.711,4.7164,4.7174,4.7183,0,0,0,0,0,0,4.723,4.72,4.7182,4.7203,4.7193,4.7167,4.718,4.7157,4.7152,4.7147,4.7111,4.7106,4.7124,4.7111,4.7091,4.7127,4.7094,4.7098,4.7135,4.7144,4.7152,4.7154,4.7044,0,0,0,0,0,4.7244,4.7249,4.7223,4.7243,4.724,4.7212,4.7211,4.7191,4.7178,4.7173,4.7155,4.7143,4.7143,4.7143,4.714,4.7166,4.716,4.7181,4.7188,4.7195,4.7199,4.7213,4.7222,4.7125,4.7125,4.7125,0,0,4.7273,4.7258,4.7263,4.7254,4.7244,4.725,4.7208,4.7215,4.7219,4.7173,4.7185,4.7172,4.7156,4.7176,4.7184,4.7166,4.7225,4.72,4.7206,4.7205,4.7218,4.7227,4.7236,4.7128,4.7127,4.7127,0,0,4.7329,4.7318,4.7335,4.7326,4.7312,4.7294,4.7298,4.7277,4.7267,4.7278,4.7245,4.7249,4.7248,4.724,4.7235,4.7292,4.7266,4.7292,4.7333,4.7348,4.7355,4.7362,4.7383,4.7391,4.7296,4.7296,4.7296,0,4.7366,4.7374,4.7346,4.7356,4.7354,4.7316,4.7333,4.7326,4.7311,4.731,4.7291,4.7292,4.7279,4.7297,4.7312,4.7309,4.7313,4.7294,4.7357,4.7363,4.7369,4.7389,4.7397,4.73,4.7299,4.7299,4.7299,0,4.7422,4.7428,4.7443,4.7433,4.7432,4.7446,4.742,4.7423,4.7403,4.7387,4.74,4.7384,4.7379,4.7382,4.7361,4.7398,4.7388,4.7363,4.7329,4.7382,4.74,4.7407,4.7305,4.7303,4.7302,4.7301,0,0,4.7507,4.7484,4.749,4.7486,4.7469,4.7473,4.7486,4.7483,4.7487,4.7479,4.7489,4.7491,4.747,4.7465,4.7444,4.7457,4.7505,4.7431,4.743,4.7446,4.7546,4.7564,4.7573,4.7488,4.7489,4.749,4.7547,0,4.7559,4.7581,4.7557,4.7583,4.759,4.7555,4.7567,4.7558,4.7544,4.7547,4.7531,4.7534,4.7505,4.7502,4.7513,4.7497,4.7524,4.7492,4.7497,4.7497,4.7502,4.7583,4.7601,4.7656,4.7554,4.7555,4.7556,0,4.7622,4.762,4.7648,4.7633,4.7634,4.7645,4.7642,4.7645,4.7636,4.7625,4.7621,4.7597,4.7609,4.7577,4.7593,4.7572,4.7573,4.7565,4.7567,4.7565,4.753,4.7584,4.7672,4.7681,4.7567,4.7566,4.7565,0,4.7683,4.7687,4.7705,4.7702,4.7684,4.7693,4.7686,4.7675,4.7675,4.7672,4.7673,4.7671,4.7669,4.7669,4.7645,4.7623,4.7665,4.763,4.7656,4.7657,4.7665,4.7665,4.7756,4.7667,4.7666,4.7666,4.7666,0,4.7743,4.7762,4.7732,4.7743,4.7763,4.7736,4.7757,4.7746,4.7737,4.7746,4.7715,4.7724,4.7692,4.7697,4.7679,4.7696,4.7695,4.7687,4.7682,4.769,4.7691,4.7689,4.7685,4.7668,4.7668,4.7668,4.7667,0,4.7814,4.7794,4.7812,4.7795,4.7792,4.7807,4.7793,4.7802,4.7788,4.7799,4.78,4.7777,4.7782,4.7759,4.7758,4.7746,4.7773,4.7761,4.7777,4.7773,4.7801,4.7799,4.7893,4.7905,4.7809,4.781,4.781,0,4.7853,4.7867,4.7853,4.7858,4.7853,4.786,4.7861,4.7836,4.7839,4.7831,4.7842,4.7845,4.7846,4.7855,4.7838,4.7839,4.7827,4.786,4.7826,4.7835,4.7828,4.7828,4.7829,4.7866,4.7868,4.7869,4.7869,0,4.7926,4.7917,4.7921,4.7923,4.7926,4.7926,4.7923,4.7928,4.7901,4.7906,4.7912,4.7913,4.7915,4.7918,4.7916,4.7908,4.7885,4.7881,4.7887,4.7895,4.7903,4.79,4.7796,4.7878,4.7877,4.7877,4.7876,4.7876,4.7982,4.7994,4.7987,4.7994,4.799,4.7989,4.7998,4.7986,4.7991,4.7992,4.7977,4.7986,4.7978,4.7973,4.7968,4.7975,4.796,4.7968,4.797,4.7973,4.7979,4.7903,4.7975,4.7974,4.7974,4.7974,4.7974,0,4.8055,4.8049,4.8056,4.8055,4.806,4.804,4.8037,4.8042,4.8051,4.8047,4.805,4.8057,4.8062,4.8047,4.8049,4.8057,4.8047,4.8059,4.8057,4.8056,4.7992,4.7987,4.8067,4.8067,4.8067,4.8067,4.8067,4.8067,4.8093,4.8112,4.8103,4.8121,4.8115,4.8125,4.8126,4.8125,4.8122,4.8133,4.8137,4.8128,4.8119,4.8121,4.8125,4.812,4.8122,4.8138,4.813,4.807,4.8061,4.8052,4.8047,4.8139,4.8139,4.8194,4.8195,4.8195]}]]